Skip Page Navigation
NASA JPL Caltech
NASA Logo - Jet Propulsion Laboratory + View the NASA Portal
+ Center for Near-Earth Object Studies
JPL Home Earth Solar System Stars & Galaxies Technology
JPL Solar System Dynamics
BODIES ORBITS EPHEMERIDES TOOLS PHYSICAL DATA DISCOVERY FAQ SITE MAP
IMPORTANT: The SSD Announcement email list is now available. Major changes are coming in the near future, including possible hostname and/or URL changes. To be notified of such changes, subscribe to this email list.

Please visit this page for more details.


JPL Small-Body Database Browser
Search: [ help ]  
452734 (2006 BU25)
Classification: Main-belt Asteroid          SPK-ID: 2452734
Ephemeris | Orbit Diagram | Orbital Elements | Mission Design | Physical Parameters | Discovery Circumstances | Close-Approach Data ]

[ show orbit diagram ]
Orbital Elements at Epoch 2458600.5 (2019-Apr-27.0) TDB
Reference: JPL 8 (heliocentric ecliptic J2000)
 Element Value Uncertainty (1-sigma)   Units 
e .1793150740550503 9.7215e-08  
a 3.058094881559565 3.3911e-08 au
q 2.509732371405341 2.9772e-07 au
i .3358946772659845 8.8456e-06 deg
node 139.5089717012556 0.0014613 deg
peri 52.00024147765596 0.0014618 deg
M 130.5846263134994 2.9155e-05 deg
tp 2457891.959938806914
(2017-May-18.45993881)
0.00015551 TDB
period 1953.326583920714
5.35
3.2491e-05
8.896e-08
d
yr
n .1843009781177546 3.0656e-09 deg/d
Q 3.606457391713789 3.9992e-08 au
  Orbit Determination Parameters
   # obs. used (total)      127  
   data-arc span      6321 days (17.31 yr)  
   first obs. used      2001-03-21  
   last obs. used      2018-07-11  
   planetary ephem.      DE431  
   SB-pert. ephem.      SB431-N16  
   condition code      0  
   norm. resid. RMS      .5069  
   source      ORB  
   producer      Otto Matic  
   solution date      2019-Jul-14 06:25:05  

Additional Information
 Earth MOID = 1.51015 au 
 Jupiter MOID = 1.35171 au 
 T_jup = 3.210 
[ show covariance matrix ]

Ephemeris | Orbit Diagram | Orbital Elements | Mission Design | Physical Parameters | Discovery Circumstances | Close-Approach Data ]

Physical Parameter Table
Parameter Symbol Value Units Sigma Reference Notes
absolute magnitude H 16.8   n/a MPO437750  

452734 (2006 BU25)          Discovered 2006-Jan-23 by Healy, D. at Junk Bond
Reference: Last Updated: 2016-01-04

[ hide close-approach data ]
Close-Approach Data   ...sorted by Date/Time (TDB)
Date/Time (TDB) Time Uncertainty
(days_HH:MM)
Body Nominal Distance (au) Minimum Distance (au) Maximum Distance (au) V-relative (km/s) V-infinity (km/s) JD (TDB) Time Uncertainty (minutes) Semi-major axis (km) Semi-minor axis (km) range-LOV angle (deg) N-sigma BP Orbit Ref. Reference Modified
1929-Oct-02 02:23 00:05 Jupiter 1.79810769118422 1.79810362931534 1.79811175304002 2.22497119427662 2.00209146777634 2425886.599000805 4.73389508358655 107.334355169179 23.2208906573698 85.2235775349362 337711.525595249 T 8 CATAB v2.0e-lin.ifort 2019-Jul-14 06:25:08 2019-Jul-14 06:25
1939-Feb-28 06:56 00:04 Jupiter 1.46042533558871 1.46042305496601 1.46042761621862 0.910185848556944 n/a 2429322.789085361 4.31840735650302 219.610525343198 57.7853877677076 62.4636087459786 3382695.31235275 F 8 CATAB v2.0e-lin.ifort 2019-Jul-14 06:25:08 2019-Jul-14 06:25
1988-May-24 02:19 00:02 Jupiter 1.53227085249322 1.53226879504571 1.53227290992867 1.18459048974579 0.545597444622156 2447305.596858475 1.85841499223151 4649.39273033034 577.740363147826 -6.17448274848863 456042.44611251 T 8 CATAB v2.0e-lin.ifort 2019-Jul-14 06:25:08 2019-Jul-14 06:25
1997-Oct-17 12:04 00:01 Jupiter 1.70756952360392 1.70756779745988 1.70757124974573 1.783063326298 1.47893040492904 2450739.002904212 1.41958060802883 170.494674837273 74.3800137887328 60.1403773705591 882804.302177959 T 8 CATAB v2.0e-lin.ifort 2019-Jul-14 06:25:08 2019-Jul-14 06:25
2047-Jan-31 02:16 00:02 Jupiter 1.37620995796803 1.37620872847133 1.37621118746533 0.689825195506297 n/a 2468741.594763891 1.95355630170651 113.772664835879 54.0199800992903 -73.1670620428159 3683979.82452411 F 8 CATAB v2.0e-lin.ifort 2019-Jul-14 06:25:08 2019-Jul-14 06:25
2056-Jul-04 08:17 00:02 Jupiter 1.97419311317385 1.97419055799421 1.97419566835147 2.92154951662558 2.77080433870183 2472183.845412401 2.48081938627434 96.1165110717861 67.1069839856418 -47.1710533816441 600414.537191911 T 8 CATAB v2.0e-lin.ifort 2019-Jul-14 06:25:08 2019-Jul-14 06:25
2096-Jun-04 06:54 00:05 Jupiter 1.99172347244909 1.99171959496651 1.99172734992715 3.02487837534767 2.88085870905064 2486763.787258371 4.73608469644434 129.083492309342 87.4358777235615 3.58391863380684 376865.582461651 T 8 CATAB v2.0e-lin.ifort 2019-Jul-14 06:25:08 2019-Jul-14 06:25
2105-Nov-07 11:47 00:06 Jupiter 1.37344313738727 1.37344153876528 1.37344473602447 0.670031077683244 n/a 2490205.990928026 5.68056786141729 286.048175994395 44.4824104066725 76.4607566811215 4492171.81711113 F 8 CATAB v2.0e-lin.ifort 2019-Jul-14 06:25:08 2019-Jul-14 06:25
2155-Feb-22 10:44 00:10 Jupiter 1.72652674133353 1.72651938531209 1.72653409728471 1.88264099993826 1.60098421610994 2508209.947176402 9.86698641303845 314.193477924438 88.619016410114 -35.7078658055676 271354.0105791 T 8 CATAB v2.0e-lin.ifort 2019-Jul-14 06:25:08 2019-Jul-14 06:25
2164-Jul-16 13:25 00:11 Jupiter 1.52355471752704 1.52354823067288 1.52356121005732 1.12699651440258 0.397766467685125 2511642.059212997 10.6842916379178 33441.6046393073 1170.15135869555 17.7957128635213 1063065.96494452 T 8 CATAB v2.0e-lin.ifort 2019-Jul-14 06:25:08 2019-Jul-14 06:25

Alternate Designations
 2006 BU25 = 2001 FL181 
Ephemeris | Orbit Diagram | Orbital Elements | Mission Design | Physical Parameters | Discovery Circumstances | Close-Approach Data ]
ABOUT SSD CREDITS/AWARDS PRIVACY/COPYRIGHT GLOSSARY LINKS
FirstGov 2020-Jan-25 02:07 UT
(server date/time)  
NASA Home Page
Site Manager:   Ryan S. Park
Webmaster  Alan B. Chamberlin